Starlink 5189

operational
NORAD ID: 54052 Int'l Des: 2022-136 Owner: SPXS Country: US Constellation: starlink
LEOCIRCULAR

About Starlink 5189

Description loading...

Live Position

Loading 3D Globe...

Upcoming Passes

Altitude History

Altitude vs Time

uPlot chart will show altitude changes over time

Two-Line Element Set

1 54052U 22136B 25345.43091178 -.00000283 00000-0 28806-6 0 9996
2 54052 53.2181 340.1449 0001450 89.1946 270.9212 15.08836518174088
Epoch: Dec 11, 2025 • Age: 14 hours

Current Status

Altitude 558.8 km
Velocity 7.58 km/s
Sub-Earth Point -51.94°S, 179.67°W
Launch Date Oct 20, 2022
Age 3.1 years
Type internet

Technical Details

Classification Payload
Mass 305.00 kg
Dry Mass 290.00 kg
Total Mass 305.00 kg
Length 0.20 m
Diameter 2.80 m
Span 9.00 m
Shape Box + pan
Manufacturer SPXS
Bus Type Starlink
Phase Status In Orbit
Owner/State SPXS/US

Large Constellations

Loading constellations...